Location: Delia
(51.6321°N, 112.3740°W)
Time: 21:19:13
(UTC+00:00)

Envisat - Pass Details

Date: 04 December 2021
Orbit: 764 x 766 km, 98.2° (Epoch: 26 January)

Event Time Altitude Azimuth Distance (km) Brightness Sun altitude
Rises 13:50:06 0° 8° (N) 3,248 6.1 -12.8°
Reaches altitude 10° 13:52:38 10° 358° (N) 2,317 5.3 -12.5°
Maximum altitude 13:57:02 30° 298° (WNW) 1,350 3.7 -11.8°
Drops below altitude 10° 14:01:24 10° 239° (WSW) 2,303 5.1 -11.2°
Sets 14:03:56 0° 229° (SW) 3,225 6.0 -10.8°
